Карточка аэропорта USHH

Внимание!
Информация на этой странице в стадии наполнения.
Если вы не увидели какой-то информации, или заметили неточность - пожалуйста сообщите нам!
Спасибо!
Команда RU-STAFF
Название аэропортаХанты-Мансийск
Название аэропорта (англ.)Khanty-Mansiysk
Превышение141 ft. (43 m.)
Координаты61°1.7039999999999', 69°5.1599999999999'
Высота перехода3000ft
Эшелон переходаQNH>=1013hPa:FL040; QNH>=977hPa:FL050; QNH<=977hPa:FL060
Коды ответчика5150-5177
Зона ОрВДТюмень РПИ (USTV)
Данные METARUSHH 150730Z 04003MPS 9999 SCT025CB 19/14 Q1015 R06/190060 TEMPO 1000 SHRA BR BKN003CB
Проноз погоды (TAF)USHH 150535Z 1505/1606 01003G12MPS 6000 FEW005 BKN016 TEMPO 1505/1524 1800 -TSRA BR BKN004 BKN011CB
NOTAMshow/hide NOTAM
AWOS   TABLE

Информация о ВПП

ВПП Длина ВПП (м.) Покрытие Курс ВПП Частота ILS
062800Асфальтобетон58111.9
242800Асфальтобетон238110.1

Диспетчерские позиции

Позывной Наименование органа УВД Частота
USHH_R_APPХантым-Круг120.4
USHH_TWRХантым-Вышка118.1



Спутниковое изображение